Location: Chatou
(48.8898°N, 2.1586°E)
Time: 00:45:43
(UTC+00:00)

STRAND 1 - Pass Details

Date: 10 December 2023
Orbit: 766 x 778 km, 98.4° (Epoch: 03 March)

Event Time Altitude Azimuth Distance (km) Brightness Sun altitude
Rises 06:16:32 0° 192° (SSW) 3,230 ? -12.0°
Reaches altitude 10° 06:19:04 10° 202° (SSW) 2,306 ? -11.6°
Maximum altitude 06:23:35 32° 265° (W) 1,305 ? -10.9°
Drops below altitude 10° 06:28:08 10° 328° (NNW) 2,317 ? -10.2°
Enters shadow 06:29:25 - 334° (NNW) 2,773 ? -10.0°
